www.pogodaiklimat.ru

Погода и климат >> Архив погоды >> Колумбия >> Картахена


ПОГОДА в Картахене

  • Прогноз погоды в Картахене
  • Монитор погоды в Картахене

АРХИВ ПОГОДЫ в Картахене

Время (UTC), дата Ветер
(напр.,м/с)
 
Видим.   Явления Облачность Т
(С)
Тd
(С)
f
(%)
Тe
(С)
Тes
(С)
Комфортность P
(гПа)
Po
(гПа)
Тmin
(С)
Tmax
(С)
R
(мм)
R24
(мм)
S
(см)
12 15.05 Ю 1 8000 м мгла 9/3 450 м
[Cb cap Ac trans Ci fib]
+28.3 +26.6 91 +44 +45 опасность
перегрева
1010.8 1010.6 +26.3 0.5
15 15.05 СЗ 3 12 км мгла 6/4 450 м
[Cb cap Ci fib]
+31.9 +26.8 74 +49 +57 опасность
перегрева
1012.5 1012.3
18 15.05 В 3 3000 м сильн. гроза, ливневой дождь 10/10 210 м
[Cb cap]
+24.4 +23.9 97 +33 +33 очень
душно
1011.9 1011.7 3
21 15.05 нст 1 14 км {гроза, морось} 9/1 450 м
[Sc diur, vesp As op Ci sp]
+28.8 +25.5 82 +42 +46 опасность
перегрева
1009.0 1008.8
00 16.05 ЮЗ 1 15 км мгла 10/1 500 м
[Sc Ac As Ci sp]
+28.0 +25.2 85 +41 +41 опасность
перегрева
1010.7 1010.5 +33.6 8
03 16.05 В 2 15 км мгла 4/0
[Ci fib]
+27.1 +25.6 92 +40 +40 очень
душно
1011.8 1011.6
06 16.05 В 2 12 км мгла 5/5 450 м
[Sc diur, vesp]
+26.7 +25.6 94 +39 +39 очень
душно
1011.3 1011.1
09 16.05 штиль 0 12 км мгла 4/1 450 м
[Sc diur, vesp Ac lent]
+26.5 +25.4 94 +39 +39 очень
душно
1010.1 1009.9
12 16.05 штиль 0 12 км мгла 5/0
[Ci fib]
+27.6 +25.9 90 +41 +43 опасность
перегрева
1011.0 1010.8 +24.4 12
15 16.05 С 4 14 км мгла 8/4 450 м
[Cb cap Ci fib]
+30.7 +26.0 76 +46 +52 опасность
перегрева
1012.3 1012.1
21 16.05 С 7 15 км мгла 6/3 450 м
[Cb cap Ci fib]
+30.6 +25.5 74 +45 +46 опасность
перегрева
1007.8 1007.6
00 17.05 С 4 15 км мгла 6/3 450 м
[Sc diur, vesp Ci ing]
+28.6 +25.4 83 +42 +42 опасность
перегрева
1008.6 1008.4 +33.0
06 17.05 СВ 2 12 км 8/3 450 м
[St Ac trans Ci fib]
+28.0 +25.2 85 +41 +41 опасность
перегрева
1009.9 1009.7
09 17.05 С 3 12 км 6/1 450 м
[St Ac trans Ci fib]
+28.1 +25.2 84 +41 +41 опасность
перегрева
1008.8 1008.6
12 17.05 С 1 8000 м мгла 5/3 300 м
[Sc diur, vesp Ac As Ci fib]
+28.5 +25.7 85 +42 +44 опасность
перегрева
1009.3 1009.1 +26.0
18 17.05 СЗ 6 12 км мгла 6/3 600 м
[Cu med, cong Ci fib]
+33.2 +26.3 67 +49 +55 опасность
перегрева
1009.2 1009.0
21 17.05 СЗ 4 12 км мгла 6/4 540 м
[Cb calv Ci fib]
+31.5 +25.1 69 +45 +48 опасность
перегрева
1006.8 1006.6
00 18.05 СВ 2 10 км гроза без осадков 8/5 450 м
[Cb cap Ci ing]
+30.1 +26.0 79 +45 +45 опасность
перегрева
1008.1 1007.9 +33.8
03 18.05 СВ 2 10 км мгла 10/6 480 м
[Frnb Ac trans]
+28.7 +25.6 83 +42 +42 опасность
перегрева
1009.7 1009.5
09 18.05 С 3 11 км мгла 10/1 450 м
[Sc diur, vesp Ac As Ci sp]
+27.7 +25.6 88 +41 +41 опасность
перегрева
1008.1 1007.9
12 18.05 штиль 0 12 км мгла 10/5 500 м
[Sc Ac trans Ci fib]
+28.6 +25.7 84 +42 +43 опасность
перегрева
1008.9 1008.7 +27.6
15 18.05 З 2 12 км мгла 10/5 500 м
[Cb cap Ac trans]
+30.3 +25.1 74 +44 +47 опасность
перегрева
1009.8 1009.6
18 18.05 З 3 12 км мгла {гроза} 10/3 540 м
[Cb calv Ac trans Ci fib]
+31.0 +25.1 71 +45 +51 опасность
перегрева
1009.0 1008.8
21 18.05 З 3 11 км осадки на расстоянии {гроза} 10/5 500 м
[Cb cap Ac As]
+30.2 +25.1 74 +44 +44 опасность
перегрева
1007.2 1007.0
00 19.05 ЮВ 3 12 км мгла 10/6 360 м
[Frnb As op]
+27.0 +26.3 96 +41 +41 опасность
перегрева
1008.1 1007.9 +33.0 0.2
03 19.05 штиль 0 12 км мгла 10/5 400 м
[Frnb As op]
+27.4 +25.5 89 +40 +40 очень
душно
1010.1 1009.9
06 19.05 СВ 1 12 км мгла 10/4 400 м
[Frnb Ac trans Cs]
+26.4 +25.2 93 +38 +38 очень
душно
1009.2 1009.0
09 19.05 СВ 1 12 км мгла 10/4 400 м
[Frnb As op]
+26.5 +25.3 93 +38 +38 очень
душно
1008.5 1008.3
12 19.05 штиль 0 12 км мгла 10/5 450 м
[Sc As trans Cs]
+27.6 +25.3 87 +40 +41 очень
душно
1010.2 1010.0 +26.5 0.2
15 19.05 Ю 3 14 км слаб. морось {гроза} 10/3 540 м
[Frnb Ac As]
+26.2 +24.6 91 +37 +40 очень
душно
1011.6 1011.4
18 19.05 Ю 3 14 км мгла 9/3 500 м
[Sc diur, vesp As op Cs]
+29.2 +24.7 77 +42 +48 опасность
перегрева
1010.9 1010.7 0.6
21 19.05 С 4 14 км мгла 6/1 500 м
[Sc diur, vesp As op Cs]
+29.2 +24.6 76 +41 +44 опасность
перегрева
1008.6 1008.4
00 20.05 штиль 0 14 км мгла 10/4 600 м
[Cu Sc Ac trans Ci fib]
+28.2 +25.0 83 +41 +41 опасность
перегрева
1009.1 1008.9 +30.4
03 20.05 нст 1 14 км мгла 10/3 600 м
[Sc Ac trans Ci fib]
+26.7 +24.1 86 +37 +37 очень
душно
1010.4 1010.2
06 20.05 СВ 2 14 км мгла 10/6 500 м
[Cu Sc Ci fib]
+26.6 +25.0 91 +38 +38 очень
душно
1010.0 1009.8
09 20.05 нст 1 14 км мгла 10/5 500 м
[Cu Sc As op Ci fib]
+26.2 +25.3 95 +38 +38 очень
душно
1009.5 1009.3
12 20.05 ЮВ 2 11 км мгла 10/1 600 м
[Cb calv Ac trans Ci fib]
+28.0 +25.3 85 +41 +42 опасность
перегрева
1010.5 1010.3 +25.0 60
15 20.05 СЗ 5 11 км мгла 9/4 500 м
[Sc diur, vesp Ac trans Ci fib]
+30.4 +24.2 70 +42 +45 опасность
перегрева
1011.6 1011.4
18 20.05 З 3 13 км осадки на расстоянии {морось} 8/3 450 м
[Cb cap Ac cuf Ci fib]
+32.1 +25.4 68 +47 +54 опасность
перегрева
1010.1 1009.9 9
21 20.05 С 5 12 км мгла 5/1 500 м
[Cb cap Ci fib]
+30.6 +26.4 78 +47 +49 опасность
перегрева
1007.8 1007.6
00 21.05 С 6 12 км мгла 8/4 400 м
[St Ac cuf Ci fib]
+28.9 +25.6 82 +43 +43 опасность
перегрева
1008.9 1008.7 +33.4
03 21.05 С 2 11 км мгла 8/1 400 м
[St Ci fib]
+28.0 +25.3 85 +41 +41 опасность
перегрева
1010.2 1010.0
06 21.05 В 2 10 км зарница 6/1 400 м
[Cb cap Ac As Ci ing]
+27.5 +25.5 89 +40 +40 очень
душно
1009.9 1009.7
09 21.05 штиль 0 9000 м зарница 10/1 400 м
[Cb cap Ac As Cs]
+26.8 +25.6 93 +39 +39 очень
душно
1008.7 1008.5
12 21.05 ЮВ 6 8000 м осадки на расстоянии {морось} 10/9 360 м
[Frnb Ac As]
+27.5 +25.9 91 +41 +41 опасность
перегрева
1009.9 1009.7 +25.0 10
15 21.05 ЮЗ 4 11 км слаб. дождь {гроза, морось} 10/1 450 м
[Frnb As op]
+24.6 +23.3 92 +33 +35 очень
душно
1011.5 1011.3
18 21.05 Ю 3 15 км мгла 10/3 400 м
[Frnb As op]
+26.3 +23.7 86 +36 +38 очень
душно
1009.7 1009.5 6
21 21.05 З 1 15 км мгла 10/3 450 м
[St As op]
+28.2 +24.4 80 +40 +41 очень
душно
1008.1 1007.9
00 22.05 С 2 14 км мгла 9/4 300 м
[Sc diur, vesp Ac und Cs]
+27.0 +24.3 85 +38 +38 очень
душно
1008.9 1008.7 +28.4 2
03 22.05 В 2 14 км мгла 8/3 450 м
[Sc diur, vesp As op Ci sp]
+26.2 +24.6 91 +37 +37 очень
душно
1010.6 1010.4
06 22.05 С 2 12 км мгла 9/4 450 м
[Sc diur, vesp As op Cs]
+26.0 +24.1 89 +36 +36 очень
душно
1010.4 1010.2
09 22.05 ЮЗ 2 12 км мгла 8/4 450 м
[Sc diur, vesp As op Cs]
+26.2 +24.0 88 +36 +36 очень
душно
1009.8 1009.6

 

Местоположение метеостанции Картахена (Колумбия): широта 10.45 долгота -75.51 высота над уровнем моря 12 м.

В архиве по умолчанию представлена погода в Картахене за последнюю неделю. Архивные данные за месяц целиком и за предыдущие месяцы, начиная с января 2011 года, Вы можете получить, выбрав интересующий диапазон дат из раскрывающегося списка и нажав кнопку "Ввод!".


*Определитесь, кто Вы:
робот инопланетянин человек

Внимание! Время в таблицах - всемирное. Для получения местного времени необходимо прибавить поправку, которая равна -5 ч.

Смотрите также архив погоды в соседних городах и на ближайших метеорологических станциях:

Погода в Барранкилье (Колумбия) (93 км)
Погода в Санта-Марте (Колумбия) (159 км)
Погода в Монтерии (Колумбия) (185 км)
Погода в Вальедупаре (Колумбия) (247 км)
Погода в Риоаче (Колумбия) (306 км)
Погода в Апартадо (Колумбия) (320 км)
Погода в Маракайбо аэропорту (Венесуэла) (414 км)
Погода в Маракайбо (Венесуэла) (422 км)
Погода в Барранкабермехе (Колумбия) (425 км)
Погода в Кукуте (Колумбия) (432 км)

Пояснения к столбцам:

Ветер - указаны скорость ветра в м/с - средняя за 10 мин, порывы в срок и между сроками (в фигурных скобках) и направление, откуда дует ветер: С - северный, СВ - северо-восточный, В - восточный, ЮВ - юго-восточный, Ю - южный, ЮЗ - юго-западный, З - западный, СЗ - северо-западный.
Видимость - горизонтальная дальность видимости в метрах или километрах. При видимости от 1 до 10 км при отсутствии осадков обычно наблюдается дымка, при ухудшении видимости до 1 км и менее - туман. В сухую погоду видимость может ухудшаться дымом, пылью или мглою.
Явления - указаны атмосферные явления, наблюдавшиеся в срок или в последний час перед сроком; фигурными скобками обозначены явления, наблюдавшиеся между сроками (за 1-3 часа до срока); квадратными скобками обозначены град или гололедные отложения с указанием их диаметра в мм.
Облачность - указаны через наклонную черту общая и нижняя облачность в баллах и высота нижней границы облаков в метрах; квадратными скобками обозначены формы облаков: Ci - перистые, Cs - перисто-слоистые, Cc - перисто-кучевые, Ac - высококучевые, As - высокослоистые, Sc - слоисто-кучевые, Ns - слоисто-дождевые, Cu - кучевые, Cb - кучево-дождевые. Подробнее классификацию облаков см. в Атласе облаков (PDF).
T - Температура воздуха - температура, измеренная на высоте 2 м над землей.
Td - Температура точки росы - температура, при понижении до которой содержащийся в воздухе водяной пар достигнет насыщения.
f - Относительная влажность воздуха - влажноcть воздуха, измеренная на высоте 2 м над землей.
Te - Эффективная температура - температура, которую ощущает одетый по сезону человек в тени. Характеристика душности погоды. При расчете учитывается влияние влажности воздуха и скорости ветра на теплоощущения человека.
Tes - Эффективная температура на солнце - температура, которую ощущает человек, с поправкой на солнечный нагрев. Характеристика знойности погоды. Зависит от высоты солнца над горизонтом, облачности и скорости ветра. Ночью, в пасмурную погоду, а также при ветре 12 м/с и более поправка равна нулю.
P - Атмосферное давление - приведенное к уровню моря атмосферное давление.
Po - Атмосферное давление - измеренное на уровне метеостанции атмосферное давление.
Tmin - Минимальная температура - минимум температуры воздуха на высоте 2 м над землей.
Tmax - Максимальная температура - максимум температуры воздуха на высоте 2 м над землей.
R - Количество осадков - Количество выпавших осадков за период времени, мм. При наведении курсора мыши на число - период времени, за который выпало указанное количество осадков.
R24 - Количество осадков - Количество выпавших осадков за 24 часа, мм.
S - Снежный покров - Высота снежного покрова, см. При наведении курсора мыши на число - состояние снежного покрова и степень покрытия местности в баллах.